This demonstration page uses our WeatherBlox Daily Observations layout. Learn more.

Left ArrowRight Arrow

Hourly Observations for July 28, 2016

Temp ( °F °C ) Dew Point ( °F °C ) Humidity (%) Winds ( mph kmh ) Pressure ( in mb ) Visibility ( mi km ) Precip ( " mm )
12:58 am 00:58 Mostly Cloudy 74 23.1 71 21.4 90 90 NW 1 2 29.95 1014 10 16 0.00 0.00
1:58 am 01:58 Partly Cloudy 71 21.6 70 21 96 96 NW 3 6 29.96 1014 10 16 0.00 0.00
2:58 am 02:58 Clear 71 21.9 68 19.9 88 88 N 6 9 29.96 1014 10 16 0.00 0.00
3:58 am 03:58 Clear 73 22.8 69 20.6 87 87 NNE 7 11 29.94 1014 10 16 0.00 0.00
4:58 am 04:58 Mostly Cloudy 72 22 70 21 94 94 NE 5 7 29.96 1014 10 16 0.00 0.00
5:58 am 05:58 Mostly Cloudy 72 22.3 69 20.4 89 89 N 6 9 29.98 1015 10 16 0.00 0.00
6:58 am 06:58 Sunny 71 21.7 67 19.7 88 88 NNW 2 4 30.01 1016 10 16 0.00 0.00
7:58 am 07:58 Sunny 74 23.1 67 19.5 80 80 N 6 9 30.01 1016 10 16 0.00 0.00
8:58 am 08:58 Sunny 75 24 66 19.1 74 74 NE 9 15 30.01 1016 10 16 0.00 0.00
9:58 am 09:58 Sunny 77 25.2 66 18.8 68 68 NNE 6 9 30.01 1016 10 16 0.00 0.00
10:58 am 10:58 Sunny 79 26.3 65 18.4 62 62 N 10 17 30.01 1016 10 16 0.00 0.00
11:58 am 11:58 Sunny 81 27.2 65 18.5 59 59 NNE 8 13 30.01 1016 10 16 0.00 0.00
1:58 pm 13:58 Sunny 83 28.4 63 17.4 51 51 N 8 13 29.99 1016 10 16 0.00 0.00
2:58 pm 14:58 Mostly Sunny 84 28.7 64 17.9 52 52 NNE 12 19 29.96 1015 10 16 0.00 0.00
3:58 pm 15:58 Mostly Sunny 85 29.2 64 17.8 50 50 N 7 11 29.96 1014 10 16 0.00 0.00
4:58 pm 16:58 Sunny 83 28.6 65 18.3 54 54 NNE 12 19 29.93 1014 10 16 0.00 0.00
5:58 pm 17:58 Mostly Sunny 82 27.7 62 16.7 51 51 N 9 15 29.96 1015 10 16 0.00 0.00
6:58 pm 18:58 Sunny 79 26.2 61 16 53 53 NNW 6 9 29.97 1015 10 16 0.00 0.00
7:58 pm 19:58 Mostly Cloudy 78 25.3 64 17.6 62 62 NNE 9 15 29.96 1015 10 16 0.00 0.00
8:58 pm 20:58 Mostly Cloudy 75 23.8 64 17.9 70 70 NE 3 6 29.97 1015 10 16 0.00 0.00
9:58 pm 21:58 Cloudy 74 23.1 64 17.5 71 71 NE 5 7 30.00 1016 10 16 0.00 0.00
10:58 pm 22:58 Cloudy 73 22.7 64 17.5 73 73 NE 2 4 30.02 1017 10 16 0.00 0.00
11:19 pm 23:19 Cloudy with Light Rain 73 23 63 17 69 69 N 2 4 30.00 1016 10 16 0.00 0.00
11:34 pm 23:34 Cloudy 72 22 64 18 78 78 NNE 3 6 30.00 1016 10 16 0.00 0.00
11:58 pm 23:58 Cloudy 72 22.2 64 17.8 76 76 NNE 6 9 30.02 1017 10 16 0.00 0.03

Powered by AerisWeather